Location: Unspecified
(38.0989°N, 0.6729°W)
Time: 12:24:39
(UTC+02:00)

N. Korean satellite - Visible Passes

Search period start: 31 March 2023 00:00
Search period end: 10 April 2023 00:00
Orbit: 389 x 416 km, 97.3° (Epoch: 30 March)

Date Brightness Start Highest point End Pass type
(mag) Time Alt. Az. Time Alt. Az. Time Alt. Az.
01 Apr 9.2 06:51:00 10° NE 06:53:18 19° E 06:55:35 10° SE visible
03 Apr 9.4 06:43:43 10° ENE 06:45:33 15° E 06:47:23 10° SE visible
05 Apr 9.7 06:36:12 10° ENE 06:37:11 11° E 06:38:10 10° ESE visible
08 Apr 8.2 07:06:47 10° NNE 07:09:33 32° E 07:12:19 10° SSE visible
